Torna al catalogo

ONEWEB-0610

AttivoComunicazioniPO
NORAD 54673·PAYLOAD·🇬🇧 United Kingdom

Lanciato Dec 8, 2022 da Cape Canaveral Space Force Station

Loading…

Prossimi Passaggi (prossime 24 ore)

TLE

AggiornatoSource: CelesTrak SupGP

Epoca: Sep 14, 2026, 17:51 UTC

1 54673C 22166AH  26257.74428657  .00002270  00000+0  55025-2 0  2573
2 54673  87.9278 226.1520 0002658  90.3549 303.1436 13.21825082    10

Traccia ONEWEB-0610 in tempo reale con AllMySat

Download on the App Store